Terminal Aerodrome Forecast
Issued by NWS

Home | Current Version | Previous Version | Graphics & Text | Print | Product List | Glossary On
Versions: 1 2 3 4 5 6 7 8 9 10 11 12 13 14 15 16 17
000
FTUS43 KIWX 231700
TAFSBN
TAF
KSBN 231720Z 2318/2418 34012KT P6SM BKN025
     FM231900 35010KT P6SM BKN035
     FM232300 36006KT P6SM SCT050
     FM240900 02004KT P6SM SKC=

USA.gov is the U.S. government's official web portal to all federal, state and local government web resources and services.